STARLINK-32456, 62041

Orbit data source: Space-Track

STARLINK-32456, 62041 is a payload satellite owned by SpaceX/Seattle (US) in LEO that was launched on Thu, 21 Nov 2024 UTC via an FALCON 9 launch vehicle from the Air Force Eastern Test Range (AFETR). Payloads include a variety of satellites, spacecraft, and rockets equipped with specific instruments for various scientific and technological missions. These include communications satellites like Starlink; space stations such as the ISS; scientific satellites like the Hubble; Earth observation satellites from companies like Planet Labs, Umbra, and HawkEye 360; GPS; miniature CubeSats for education and research; and military/defense satellites.

Loading next visibility...
STARLINK-32456 details
Identifier
62041, 2024-216K
Orbit
LEO
Last TLE update9 hours ago
Origin
Flag of USSpaceX/Seattle (US)
ManufacturerSpaceX/Seattle
MissionOperational spacecraft
Bus & MotorSTARLINK V2M, Unknown motor
Mass730 kg wet, ~700 kg dry
Launch date (UTC)
2024-11-21 (1 month ago)
Launch vehicle
FALCON 9
Launch site
Air Force Eastern Test Range (AFETR)
Object type
Payload
Rocket body
Debris
Shape & HBRUnknown
Radar Cross SectionLarge (>1 m²)

Expand to show TLE details & history

TLE from 9 hours ago
0 STARLINK-32456
1 62041U 24216K   24361.02977739  .00001349  00000-0  39563-4 0  9995
2 62041  43.0016 234.8180 0002816 265.1296  94.9239 15.40694781  6369
Epoch: 2024-12-26T00:42Z
Definitive object data (Epoch: 2024-12-26T00:42:52.766Z)
Latitude-0.00002°
Longitude129.08309°
Altitude443.997 km
Speed7.647 km/s
True Right ascension15h 39m 16s
True Declination0° 00' 00"
Sunlit
Object was in daylight at TLE epoch
Visualization TLE readout
Latitude4.36539°
Longitude131.5038°
Altitude443.659 km
Speed7.648 km/s
Apparent Right ascension18h 03m 54s
Apparent Declination-22° 03' 15"
Sunlit
Object is in daylight
Visualization observer readout
Local Sidereal Time09:25:46
Azimuth82.779° E
Elevation-43.902°
Doppler factor1
Orbital elements
Apogee altitude447.935 km
Perigee altitude444.092 km
Semi-major axis6,824.151 km
Eccentricity0.0002816
Inclination43.0016°
RAAN234.818°
Arg. of periapsis265.1296°
True anomaly94.95605°
Mean anomaly94.9239°
Eccentric anomaly94.93997°
Mean motion3.85008 °/min
BSTAR0.000039563
Orbital period93.5 mins
Loading maneuver chart data...
Loading historical data...
Loading historical data...
Loading historical data...
Loading historical data...
Loading historical data...
Loading historical data...
Loading historical data...

STARLINK-32456 Visibility forecast

Observer location: undefined°, undefined

Span
Click to sort rows by Start time (UTC) header in descending order
Start Az.
Max El. time (UTC)
Max El. Az.
Max El.
End time (UTC)
End Az.
5 mins2024-12-26 19:37:39.075Z229.988° WSW2024-12-26 19:39:39.075Z164.585° S40.669°2024-12-26 19:42:39.075Z77.79° E
5 mins2024-12-26 21:15:39.075Z281.098° WNW2024-12-26 21:17:39.075Z336.577° NNW38.305°2024-12-26 21:20:39.075Z68.728° E
5 mins2024-12-26 22:54:39.075Z300.721° NW2024-12-26 22:56:39.075Z49.461° ENE39.031°2024-12-26 22:59:39.075Z92.378° ESE
4 mins2024-12-27 00:32:39.075Z262.956° W2024-12-27 00:34:39.075Z186.114° SSW32.628°2024-12-27 00:36:39.075Z141.804° SSE
|